Time,TemperatureF,DewpointF,PressureIn,WindDirection,WindDirectionDegrees,WindSpeedMPH,WindSpeedGustMPH,Humidity,HourlyPrecipIn,Conditions,Clouds,dailyrainin,SoftwareType,DateUTC
2013-02-03 00:00:00,50.4,25.0,30.17,SW,225,0.0,0.0,37,0.00,CLR,,0.00,WeatherDisplay:10.37,2013-02-03 07:00:00,
2013-02-03 00:10:00,50.0,25.4,30.17,SW,225,0.0,0.0,38,0.00,CLR,,0.00,WeatherDisplay:10.37,2013-02-03 07:10:00,
2013-02-03 00:15:00,49.8,25.2,30.17,SW,225,0.0,0.0,38,0.00,CLR,,0.00,WeatherDisplay:10.37,2013-02-03 07:15:00,
2013-02-03 00:20:00,49.6,25.7,30.18,SW,225,0.0,0.0,39,0.00,CLR,,0.00,WeatherDisplay:10.37,2013-02-03 07:20:00,
2013-02-03 00:25:00,49.6,25.7,30.18,SW,225,0.0,0.0,39,0.00,CLR,,0.00,WeatherDisplay:10.37,2013-02-03 07:25:00,
2013-02-03 00:30:00,49.3,25.3,30.17,SW,225,0.0,0.0,39,0.00,CLR,,0.00,WeatherDisplay:10.37,2013-02-03 07:30:00,
2013-02-03 00:35:00,49.3,25.3,30.17,SW,225,0.0,0.0,39,0.00,CLR,,0.00,WeatherDisplay:10.37,2013-02-03 07:35:00,
2013-02-03 00:40:00,49.1,25.2,30.17,SW,225,0.0,0.0,39,0.00,CLR,,0.00,WeatherDisplay:10.37,2013-02-03 07:40:00,
2013-02-03 00:45:00,49.1,25.2,30.17,SW,225,0.0,0.0,39,0.00,CLR,,0.00,WeatherDisplay:10.37,2013-02-03 07:45:00,
2013-02-03 00:50:00,48.9,25.6,30.17,SW,225,0.0,0.0,40,0.00,CLR,,0.00,WeatherDisplay:10.37,2013-02-03 07:50:00,
2013-02-03 00:55:00,48.7,25.5,30.17,SW,225,0.0,0.0,40,0.00,CLR,,0.00,WeatherDisplay:10.37,2013-02-03 07:55:00,
2013-02-03 01:00:00,48.6,25.3,30.17,SW,225,0.0,0.0,40,0.00,CLR,,0.00,WeatherDisplay:10.37,2013-02-03 08:00:00,
2013-02-03 01:05:00,48.2,25.0,30.17,SW,225,0.0,0.0,40,0.00,CLR,,0.00,WeatherDisplay:10.37,2013-02-03 08:05:00,
2013-02-03 01:10:00,48.0,24.8,30.17,SW,225,0.0,0.0,40,0.00,CLR,,0.00,WeatherDisplay:10.37,2013-02-03 08:10:00,
2013-02-03 01:15:00,48.0,24.8,30.17,SW,225,0.0,0.0,40,0.00,CLR,,0.00,WeatherDisplay:10.37,2013-02-03 08:15:00,
2013-02-03 01:20:00,48.0,24.8,30.16,SW,225,0.0,0.0,40,0.00,CLR,,0.00,WeatherDisplay:10.37,2013-02-03 08:20:00,
2013-02-03 01:25:00,48.0,24.8,30.16,SW,225,0.0,0.0,40,0.00,CLR,,0.00,WeatherDisplay:10.37,2013-02-03 08:25:00,
2013-02-03 01:30:00,48.0,24.8,30.16,SW,225,0.0,0.0,40,0.00,CLR,,0.00,WeatherDisplay:10.37,2013-02-03 08:30:00,
2013-02-03 01:35:00,48.0,24.8,30.16,SW,225,0.0,0.0,40,0.00,CLR,,0.00,WeatherDisplay:10.37,2013-02-03 08:35:00,
2013-02-03 01:40:00,48.2,25.0,30.16,SW,225,0.0,0.0,40,0.00,CLR,,0.00,WeatherDisplay:10.37,2013-02-03 08:40:00,
2013-02-03 01:45:00,48.2,25.0,30.15,SW,225,0.0,0.0,40,0.00,CLR,,0.00,WeatherDisplay:10.37,2013-02-03 08:45:00,
2013-02-03 01:50:00,48.2,25.0,30.15,SW,225,0.0,0.0,40,0.00,CLR,,0.00,WeatherDisplay:10.37,2013-02-03 08:50:00,
2013-02-03 01:55:00,48.2,25.0,30.15,SW,225,0.0,0.0,40,0.00,CLR,,0.00,WeatherDisplay:10.37,2013-02-03 08:55:00,
2013-02-03 02:00:00,48.3,24.5,30.15,SW,225,0.0,0.0,39,0.00,CLR,,0.00,WeatherDisplay:10.37,2013-02-03 09:00:00,
2013-02-03 02:05:00,48.4,24.5,30.15,SSW,211,0.0,0.0,39,0.00,CLR,,0.00,WeatherDisplay:10.37,2013-02-03 09:05:00,
2013-02-03 02:10:00,48.4,23.9,30.15,SSW,202,0.0,0.0,38,0.00,CLR,,0.00,WeatherDisplay:10.37,2013-02-03 09:10:00,
2013-02-03 02:15:00,48.6,24.1,30.14,SSW,202,0.0,0.0,38,0.00,CLR,,0.00,WeatherDisplay:10.37,2013-02-03 09:15:00,
2013-02-03 02:20:00,48.6,24.1,30.14,SSW,202,0.0,0.0,38,0.00,CLR,,0.00,WeatherDisplay:10.37,2013-02-03 09:20:00,
2013-02-03 02:25:00,48.7,24.2,30.14,SSW,202,0.0,0.0,38,0.00,CLR,,0.00,WeatherDisplay:10.37,2013-02-03 09:25:00,
2013-02-03 02:30:00,48.7,24.2,30.13,SSW,202,0.0,0.0,38,0.00,CLR,,0.00,WeatherDisplay:10.37,2013-02-03 09:30:00,
2013-02-03 02:35:00,48.7,24.2,30.13,SSW,202,0.0,0.0,38,0.00,CLR,,0.00,WeatherDisplay:10.37,2013-02-03 09:35:00,
2013-02-03 02:40:00,48.9,24.4,30.13,SSW,202,0.0,0.0,38,0.00,CLR,,0.00,WeatherDisplay:10.37,2013-02-03 09:40:00,
2013-02-03 02:45:00,48.9,24.4,30.14,SSW,202,0.0,0.0,38,0.00,CLR,,0.00,WeatherDisplay:10.37,2013-02-03 09:45:00,
2013-02-03 02:50:00,49.1,24.6,30.14,SSW,202,0.0,0.0,38,0.00,CLR,,0.00,WeatherDisplay:10.37,2013-02-03 09:50:00,
2013-02-03 02:55:00,49.1,24.6,30.14,SSW,202,0.0,0.0,38,0.00,CLR,,0.00,WeatherDisplay:10.37,2013-02-03 09:55:00,
2013-02-03 03:00:00,49.1,25.2,30.14,SSW,202,0.0,0.0,39,0.00,CLR,,0.00,WeatherDisplay:10.37,2013-02-03 10:00:00,
2013-02-03 03:05:00,49.1,25.2,30.14,SSW,202,0.0,0.0,39,0.00,CLR,,0.00,WeatherDisplay:10.37,2013-02-03 10:05:00,
2013-02-03 03:10:00,49.1,25.2,30.13,SSW,202,0.0,0.0,39,0.00,CLR,,0.00,WeatherDisplay:10.37,2013-02-03 10:10:00,
2013-02-03 03:15:00,49.1,25.2,30.13,SSW,202,0.0,0.0,39,0.00,CLR,,0.00,WeatherDisplay:10.37,2013-02-03 10:15:00,
2013-02-03 03:20:00,49.1,25.2,30.13,SSW,202,0.0,0.0,39,0.00,CLR,,0.00,WeatherDisplay:10.37,2013-02-03 10:20:00,
2013-02-03 03:25:00,49.1,25.2,30.13,SW,223,0.0,0.0,39,0.00,CLR,,0.00,WeatherDisplay:10.37,2013-02-03 10:25:00,
2013-02-03 03:30:00,49.1,25.2,30.13,WSW,246,0.0,0.0,39,0.00,CLR,,0.00,WeatherDisplay:10.37,2013-02-03 10:30:00,
2013-02-03 03:35:00,49.1,25.2,30.13,WSW,248,0.0,0.0,39,0.00,CLR,,0.00,WeatherDisplay:10.37,2013-02-03 10:35:00,
2013-02-03 03:40:00,48.9,25.6,30.13,WSW,248,0.0,0.0,40,0.00,CLR,,0.00,WeatherDisplay:10.37,2013-02-03 10:40:00,
2013-02-03 03:45:00,48.9,25.6,30.13,WSW,248,0.0,0.0,40,0.00,CLR,,0.00,WeatherDisplay:10.37,2013-02-03 10:45:00,
2013-02-03 03:50:00,48.8,24.9,30.13,WSW,248,0.0,0.0,39,0.00,CLR,,0.00,WeatherDisplay:10.37,2013-02-03 10:50:00,
2013-02-03 03:55:00,48.7,25.5,30.13,WSW,248,0.0,0.0,40,0.00,CLR,,0.00,WeatherDisplay:10.37,2013-02-03 10:55:00,
2013-02-03 04:00:00,48.6,25.3,30.13,WSW,248,0.0,0.0,40,0.00,CLR,,0.00,WeatherDisplay:10.37,2013-02-03 11:00:00,
2013-02-03 04:05:00,48.4,25.1,30.13,WSW,248,0.0,0.0,40,0.00,CLR,,0.00,WeatherDisplay:10.37,2013-02-03 11:05:00,
2013-02-03 04:10:00,48.4,24.5,30.13,WSW,248,0.0,0.0,39,0.00,CLR,,0.00,WeatherDisplay:10.37,2013-02-03 11:10:00,
2013-02-03 04:15:00,48.4,24.5,30.12,WSW,248,0.0,0.0,39,0.00,CLR,,0.00,WeatherDisplay:10.37,2013-02-03 11:15:00,
2013-02-03 04:20:00,48.2,24.4,30.12,WSW,248,0.0,0.0,39,0.00,CLR,,0.00,WeatherDisplay:10.37,2013-02-03 11:20:00,
2013-02-03 04:25:00,48.0,24.8,30.12,WSW,248,0.0,0.0,40,0.00,CLR,,0.00,WeatherDisplay:10.37,2013-02-03 11:25:00,
2013-02-03 04:30:00,48.0,24.8,30.12,WSW,248,0.0,0.0,40,0.00,CLR,,0.00,WeatherDisplay:10.37,2013-02-03 11:30:00,
2013-02-03 04:35:00,47.7,24.5,30.12,WSW,248,0.0,0.0,40,0.00,CLR,,0.00,WeatherDisplay:10.37,2013-02-03 11:35:00,
2013-02-03 04:40:00,47.5,24.3,30.12,WSW,248,0.0,0.0,40,0.00,CLR,,0.00,WeatherDisplay:10.37,2013-02-03 11:40:00,
2013-02-03 04:45:00,47.2,24.7,30.11,WSW,248,0.0,0.0,41,0.00,CLR,,0.00,WeatherDisplay:10.37,2013-02-03 11:45:00,
2013-02-03 04:50:00,47.1,24.0,30.11,WSW,239,0.0,0.0,40,0.00,CLR,,0.00,WeatherDisplay:10.37,2013-02-03 11:50:00,
2013-02-03 04:55:00,47.1,24.0,30.11,SW,228,0.0,0.0,40,0.00,CLR,,0.00,WeatherDisplay:10.37,2013-02-03 11:55:00,
2013-02-03 05:00:00,47.1,24.0,30.11,SW,225,0.0,0.0,40,0.00,CLR,,0.00,WeatherDisplay:10.37,2013-02-03 12:00:00,
2013-02-03 05:05:00,47.1,24.0,30.11,SW,225,0.0,0.0,40,0.00,CLR,,0.00,WeatherDisplay:10.37,2013-02-03 12:05:00,
2013-02-03 05:10:00,47.1,24.6,30.11,SW,225,0.0,0.0,41,0.00,CLR,,0.00,WeatherDisplay:10.37,2013-02-03 12:10:00,
2013-02-03 05:15:00,47.1,24.6,30.11,SW,225,0.0,0.0,41,0.00,CLR,,0.00,WeatherDisplay:10.37,2013-02-03 12:15:00,
2013-02-03 05:20:00,47.1,24.6,30.11,SW,225,0.0,0.0,41,0.00,CLR,,0.00,WeatherDisplay:10.37,2013-02-03 12:20:00,
2013-02-03 05:25:00,46.9,24.4,30.11,SW,225,0.0,0.0,41,0.00,CLR,,0.00,WeatherDisplay:10.37,2013-02-03 12:25:00,
2013-02-03 05:30:00,46.9,25.0,30.11,SW,225,0.0,0.0,42,0.00,CLR,,0.00,WeatherDisplay:10.37,2013-02-03 12:30:00,
2013-02-03 05:35:00,46.9,25.0,30.11,SW,225,0.0,0.0,42,0.00,CLR,,0.00,WeatherDisplay:10.37,2013-02-03 12:35:00,
2013-02-03 05:40:00,46.8,25.4,30.10,SW,225,0.0,0.0,43,0.00,CLR,,0.00,WeatherDisplay:10.37,2013-02-03 12:40:00,
2013-02-03 05:45:00,46.7,25.4,30.10,SW,225,0.0,0.0,43,0.00,CLR,,0.00,WeatherDisplay:10.37,2013-02-03 12:45:00,
2013-02-03 05:50:00,46.6,25.3,30.11,SW,225,0.0,0.0,43,0.00,CLR,,0.00,WeatherDisplay:10.37,2013-02-03 12:50:00,
2013-02-03 05:55:00,46.6,25.3,30.11,SW,225,0.0,0.0,43,0.00,CLR,,0.00,WeatherDisplay:10.37,2013-02-03 12:55:00,
2013-02-03 06:00:00,46.6,25.3,30.10,SW,225,0.0,0.0,43,0.00,CLR,,0.00,WeatherDisplay:10.37,2013-02-03 13:00:00,
2013-02-03 06:05:00,46.6,25.3,30.10,SW,225,0.0,0.0,43,0.00,CLR,,0.00,WeatherDisplay:10.37,2013-02-03 13:05:00,
2013-02-03 06:10:00,46.8,25.4,30.10,SW,225,0.0,0.0,43,0.00,CLR,,0.00,WeatherDisplay:10.37,2013-02-03 13:10:00,
2013-02-03 06:15:00,46.6,25.3,30.10,SW,225,0.0,0.0,43,0.00,CLR,,0.00,WeatherDisplay:10.37,2013-02-03 13:15:00,
2013-02-03 06:20:00,46.8,25.4,30.10,SW,225,0.0,0.0,43,0.00,CLR,,0.00,WeatherDisplay:10.37,2013-02-03 13:20:00,
2013-02-03 06:25:00,46.8,25.4,30.10,SW,225,0.0,0.0,43,0.00,CLR,,0.00,WeatherDisplay:10.37,2013-02-03 13:25:00,
2013-02-03 06:30:00,46.8,25.4,30.10,SW,225,0.0,0.0,43,0.00,CLR,,0.00,WeatherDisplay:10.37,2013-02-03 13:30:00,
2013-02-03 06:35:00,46.8,25.4,30.10,SW,225,0.0,0.0,43,0.00,CLR,,0.00,WeatherDisplay:10.37,2013-02-03 13:35:00,
2013-02-03 06:40:00,46.8,24.9,30.10,SW,225,0.0,0.0,42,0.00,CLR,,0.00,WeatherDisplay:10.37,2013-02-03 13:40:00,
2013-02-03 06:45:00,46.8,24.9,30.10,SW,225,0.0,0.0,42,0.00,CLR,,0.00,WeatherDisplay:10.37,2013-02-03 13:45:00,
2013-02-03 06:50:00,46.9,25.0,30.10,SW,225,0.0,0.0,42,0.00,CLR,,0.00,WeatherDisplay:10.37,2013-02-03 13:50:00,
2013-02-03 06:55:00,46.9,25.6,30.11,SW,225,0.0,0.0,43,0.00,CLR,,0.00,WeatherDisplay:10.37,2013-02-03 13:55:00,
2013-02-03 07:00:00,46.9,25.6,30.10,SW,225,0.0,0.0,43,0.00,CLR,,0.00,WeatherDisplay:10.37,2013-02-03 14:00:00,
2013-02-03 07:05:00,46.9,25.6,30.10,SW,225,0.0,0.0,43,0.00,CLR,,0.00,WeatherDisplay:10.37,2013-02-03 14:05:00,
2013-02-03 07:10:00,46.8,25.4,30.10,SW,225,0.0,0.0,43,0.00,CLR,,0.00,WeatherDisplay:10.37,2013-02-03 14:10:00,
2013-02-03 07:20:00,46.9,25.6,30.10,SW,225,0.0,0.0,43,0.00,CLR,,0.00,WeatherDisplay:10.37,2013-02-03 14:20:00,
2013-02-03 07:30:00,47.0,25.7,30.10,SW,225,0.0,0.0,43,0.00,CLR,,0.00,WeatherDisplay:10.37,2013-02-03 14:30:00,
2013-02-03 07:35:00,47.1,25.2,30.11,SW,225,0.0,0.0,42,0.00,CLR,,0.00,WeatherDisplay:10.37,2013-02-03 14:35:00,
2013-02-03 07:40:00,47.1,25.2,30.10,SW,225,0.0,0.0,42,0.00,CLR,,0.00,WeatherDisplay:10.37,2013-02-03 14:40:00,
2013-02-03 07:45:00,47.3,25.3,30.10,SW,225,0.0,0.0,42,0.00,CLR,,0.00,WeatherDisplay:10.37,2013-02-03 14:45:00,
2013-02-03 07:50:00,47.7,25.7,30.10,SW,225,0.0,0.0,42,0.00,CLR,,0.00,WeatherDisplay:10.37,2013-02-03 14:50:00,
2013-02-03 07:55:00,47.8,25.8,30.10,SW,225,0.0,0.0,42,0.00,CLR,,0.00,WeatherDisplay:10.37,2013-02-03 14:55:00,
2013-02-03 08:00:00,48.0,26.0,30.10,SW,225,0.0,0.0,42,0.00,CLR,,0.00,WeatherDisplay:10.37,2013-02-03 15:00:00,
2013-02-03 08:05:00,48.0,26.0,30.10,SW,225,0.0,0.0,42,0.00,CLR,,0.00,WeatherDisplay:10.37,2013-02-03 15:05:00,
2013-02-03 08:10:00,48.2,26.7,30.10,SW,225,0.0,0.0,43,0.00,CLR,,0.00,WeatherDisplay:10.37,2013-02-03 15:10:00,
2013-02-03 08:20:00,48.7,27.8,30.10,SW,225,0.0,0.0,44,0.00,CLR,,0.00,WeatherDisplay:10.37,2013-02-03 15:20:00,
2013-02-03 08:25:00,48.7,27.8,30.10,SW,225,0.0,0.0,44,0.00,CLR,,0.00,WeatherDisplay:10.37,2013-02-03 15:25:00,
2013-02-03 08:30:00,49.0,28.0,30.10,SW,225,0.0,0.0,44,0.00,CLR,,0.00,WeatherDisplay:10.37,2013-02-03 15:30:00,
2013-02-03 08:35:00,49.1,28.7,30.10,SW,225,0.0,0.0,45,0.00,CLR,,0.00,WeatherDisplay:10.37,2013-02-03 15:35:00,
2013-02-03 08:40:00,49.3,28.8,30.10,SW,225,0.0,0.0,45,0.00,CLR,,0.00,WeatherDisplay:10.37,2013-02-03 15:40:00,
2013-02-03 08:45:00,49.6,29.1,30.10,SW,225,0.0,0.0,45,0.00,CLR,,0.00,WeatherDisplay:10.37,2013-02-03 15:45:00,
2013-02-03 08:50:00,49.8,29.3,30.10,SW,225,0.0,0.0,45,0.00,CLR,,0.00,WeatherDisplay:10.37,2013-02-03 15:50:00,
2013-02-03 08:55:00,49.8,29.3,30.10,SW,225,0.0,0.0,45,0.00,CLR,,0.00,WeatherDisplay:10.37,2013-02-03 15:55:00,
2013-02-03 09:00:00,50.2,29.1,30.10,SW,225,0.0,0.0,44,0.00,CLR,,0.00,WeatherDisplay:10.37,2013-02-03 16:00:00,
2013-02-03 09:05:00,50.4,28.7,30.10,SW,225,0.0,0.0,43,0.00,CLR,,0.00,WeatherDisplay:10.37,2013-02-03 16:05:00,
2013-02-03 09:10:00,50.7,27.8,30.10,SW,225,0.0,0.0,41,0.00,CLR,,0.00,WeatherDisplay:10.37,2013-02-03 16:10:00,
2013-02-03 09:15:00,51.2,27.0,30.10,SW,225,0.0,0.0,39,0.00,CLR,,0.00,WeatherDisplay:10.37,2013-02-03 16:15:00,
2013-02-03 09:20:00,51.5,26.7,30.10,SSW,211,0.0,0.0,38,0.00,CLR,,0.00,WeatherDisplay:10.37,2013-02-03 16:20:00,
2013-02-03 09:25:00,51.8,25.7,30.10,SSW,202,0.0,0.0,36,0.00,CLR,,0.00,WeatherDisplay:10.37,2013-02-03 16:25:00,
2013-02-03 09:30:00,52.3,25.4,30.10,SSW,202,0.0,0.0,35,0.00,CLR,,0.00,WeatherDisplay:10.37,2013-02-03 16:30:00,
2013-02-03 09:35:00,52.5,24.9,30.10,South,177,0.0,0.0,34,0.00,CLR,,0.00,WeatherDisplay:10.37,2013-02-03 16:35:00,
2013-02-03 09:40:00,52.9,25.2,30.10,SE,141,0.0,0.0,34,0.00,CLR,,0.00,WeatherDisplay:10.37,2013-02-03 16:40:00,
2013-02-03 09:45:00,53.2,24.8,30.10,SE,135,0.0,0.0,33,0.00,CLR,,0.00,WeatherDisplay:10.37,2013-02-03 16:45:00,
2013-02-03 09:50:00,53.4,25.0,30.10,SE,141,0.0,0.0,33,0.00,CLR,,0.00,WeatherDisplay:10.37,2013-02-03 16:50:00,
2013-02-03 09:55:00,53.8,24.6,30.10,SSE,157,0.0,0.0,32,0.00,CLR,,0.00,WeatherDisplay:10.37,2013-02-03 16:55:00,
2013-02-03 10:00:00,53.8,24.6,30.10,SSE,160,0.0,0.0,32,0.00,CLR,,0.00,WeatherDisplay:10.37,2013-02-03 17:00:00,
2013-02-03 10:05:00,54.3,25.1,30.10,SE,143,0.0,0.0,32,0.00,CLR,,0.00,WeatherDisplay:10.37,2013-02-03 17:05:00,
2013-02-03 10:10:00,54.3,25.1,30.10,SE,135,0.0,0.0,32,0.00,CLR,,0.00,WeatherDisplay:10.37,2013-02-03 17:10:00,
2013-02-03 10:15:00,54.3,25.1,30.10,SE,135,0.0,0.0,32,0.00,CLR,,0.00,WeatherDisplay:10.37,2013-02-03 17:15:00,
2013-02-03 10:20:00,54.9,24.8,30.10,SE,135,0.0,0.0,31,0.00,CLR,,0.00,WeatherDisplay:10.37,2013-02-03 17:20:00,
2013-02-03 10:25:00,55.0,24.9,30.10,SE,135,0.0,0.0,31,0.00,CLR,,0.00,WeatherDisplay:10.37,2013-02-03 17:25:00,
2013-02-03 10:30:00,55.2,25.1,30.10,SE,135,0.0,0.0,31,0.00,CLR,,0.00,WeatherDisplay:10.37,2013-02-03 17:30:00,
2013-02-03 10:35:00,55.6,25.4,30.10,SE,135,0.0,0.0,31,0.00,CLR,,0.00,WeatherDisplay:10.37,2013-02-03 17:35:00,
2013-02-03 10:45:00,56.1,25.8,30.11,SE,135,0.0,0.0,31,0.00,CLR,,0.00,WeatherDisplay:10.37,2013-02-03 17:45:00,
2013-02-03 10:50:00,56.3,26.0,30.11,SE,135,0.0,0.0,31,0.00,CLR,,0.00,WeatherDisplay:10.37,2013-02-03 17:50:00,
2013-02-03 10:55:00,56.7,26.3,30.11,SE,135,0.0,0.0,31,0.00,CLR,,0.00,WeatherDisplay:10.37,2013-02-03 17:55:00,
2013-02-03 11:00:00,57.0,26.6,30.10,ESE,104,0.0,0.0,31,0.00,CLR,,0.00,WeatherDisplay:10.37,2013-02-03 18:00:00,
2013-02-03 11:10:00,57.5,27.1,30.10,NE,46,0.0,0.0,31,0.00,CLR,,0.00,WeatherDisplay:10.37,2013-02-03 18:10:00,
2013-02-03 11:15:00,57.6,27.1,30.10,NE,45,3.0,4.0,31,0.00,CLR,,0.00,WeatherDisplay:10.37,2013-02-03 18:15:00,
2013-02-03 11:20:00,57.6,27.9,30.10,NE,45,1.0,2.0,32,0.00,CLR,,0.00,WeatherDisplay:10.37,2013-02-03 18:20:00,
2013-02-03 11:25:00,57.7,28.0,30.10,NE,45,0.0,0.0,32,0.00,CLR,,0.00,WeatherDisplay:10.37,2013-02-03 18:25:00,
2013-02-03 11:30:00,57.7,28.0,30.10,NE,45,0.0,0.0,32,0.00,CLR,,0.00,WeatherDisplay:10.37,2013-02-03 18:30:00,
2013-02-03 11:35:00,57.7,28.0,30.10,NE,45,0.0,0.0,32,0.00,CLR,,0.00,WeatherDisplay:10.37,2013-02-03 18:35:00,
2013-02-03 11:40:00,57.9,28.2,30.09,ENE,57,0.0,0.0,32,0.00,CLR,,0.00,WeatherDisplay:10.37,2013-02-03 18:40:00,
2013-02-03 11:45:00,58.3,27.7,30.09,ENE,68,0.0,0.0,31,0.00,CLR,,0.00,WeatherDisplay:10.37,2013-02-03 18:45:00,
2013-02-03 11:50:00,58.3,27.7,30.08,ENE,68,0.0,0.0,31,0.00,CLR,,0.00,WeatherDisplay:10.37,2013-02-03 18:50:00,
2013-02-03 11:55:00,58.8,27.4,30.09,ENE,78,0.0,0.0,30,0.00,CLR,,0.00,WeatherDisplay:10.37,2013-02-03 18:55:00,
2013-02-03 12:00:00,58.8,27.4,30.09,ESE,116,0.0,0.0,30,0.00,CLR,,0.00,WeatherDisplay:10.37,2013-02-03 19:00:00,
2013-02-03 12:05:00,58.8,27.4,30.09,SE,135,0.0,0.0,30,0.00,CLR,,0.00,WeatherDisplay:10.37,2013-02-03 19:05:00,
2013-02-03 12:10:00,58.8,27.4,30.08,ESE,102,0.0,0.0,30,0.00,CLR,,0.00,WeatherDisplay:10.37,2013-02-03 19:10:00,
2013-02-03 12:15:00,59.4,27.9,30.08,ENE,69,0.0,0.0,30,0.00,CLR,,0.00,WeatherDisplay:10.37,2013-02-03 19:15:00,
2013-02-03 12:20:00,59.7,28.1,30.07,ENE,68,0.0,0.0,30,0.00,CLR,,0.00,WeatherDisplay:10.37,2013-02-03 19:20:00,
2013-02-03 12:25:00,59.9,28.4,30.07,ENE,63,0.0,0.0,30,0.00,CLR,,0.00,WeatherDisplay:10.37,2013-02-03 19:25:00,
2013-02-03 12:30:00,60.4,28.0,30.07,ENE,64,0.0,0.0,29,0.00,CLR,,0.00,WeatherDisplay:10.37,2013-02-03 19:30:00,
2013-02-03 12:35:00,60.4,28.8,30.07,ENE,68,0.0,0.0,30,0.00,CLR,,0.00,WeatherDisplay:10.37,2013-02-03 19:35:00,
2013-02-03 12:40:00,60.6,28.2,30.06,ENE,68,0.0,0.0,29,0.00,CLR,,0.00,WeatherDisplay:10.37,2013-02-03 19:40:00,
2013-02-03 12:45:00,60.6,28.2,30.06,ENE,68,0.0,0.0,29,0.00,CLR,,0.00,WeatherDisplay:10.37,2013-02-03 19:45:00,
2013-02-03 12:50:00,61.2,28.6,30.06,ENE,68,0.0,0.0,29,0.00,CLR,,0.00,WeatherDisplay:10.37,2013-02-03 19:50:00,
2013-02-03 12:55:00,61.3,28.8,30.05,ENE,68,0.0,2.0,29,0.00,CLR,,0.00,WeatherDisplay:10.37,2013-02-03 19:55:00,
2013-02-03 13:00:00,61.5,28.9,30.05,ENE,68,0.0,0.0,29,0.00,CLR,,0.00,WeatherDisplay:10.37,2013-02-03 20:00:00,
2013-02-03 13:05:00,61.7,29.1,30.05,ENE,68,0.0,0.0,29,0.00,CLR,,0.00,WeatherDisplay:10.37,2013-02-03 20:05:00,
2013-02-03 13:10:00,61.7,29.1,30.05,ENE,60,0.0,0.0,29,0.00,CLR,,0.00,WeatherDisplay:10.37,2013-02-03 20:10:00,
2013-02-03 13:15:00,61.9,29.2,30.05,ENE,62,0.0,0.0,29,0.00,CLR,,0.00,WeatherDisplay:10.37,2013-02-03 20:15:00,
2013-02-03 13:20:00,61.9,29.2,30.04,ENE,68,0.0,0.0,29,0.00,CLR,,0.00,WeatherDisplay:10.37,2013-02-03 20:20:00,
2013-02-03 13:25:00,61.9,29.2,30.04,ENE,68,0.0,0.0,29,0.00,CLR,,0.00,WeatherDisplay:10.37,2013-02-03 20:25:00,
2013-02-03 13:30:00,61.9,29.2,30.04,ENE,74,0.0,0.0,29,0.00,CLR,,0.00,WeatherDisplay:10.37,2013-02-03 20:30:00,
2013-02-03 13:40:00,62.1,29.4,30.04,East,90,0.0,0.0,29,0.00,CLR,,0.00,WeatherDisplay:10.37,2013-02-03 20:40:00,
2013-02-03 13:45:00,62.1,29.5,30.04,East,90,0.0,0.0,29,0.00,CLR,,0.00,WeatherDisplay:10.37,2013-02-03 20:45:00,
2013-02-03 13:50:00,62.2,29.6,30.03,East,80,0.0,0.0,29,0.00,CLR,,0.00,WeatherDisplay:10.37,2013-02-03 20:50:00,
2013-02-03 13:55:00,62.2,29.6,30.03,ENE,70,0.0,0.0,29,0.00,CLR,,0.00,WeatherDisplay:10.37,2013-02-03 20:55:00,
2013-02-03 14:00:00,62.2,30.4,30.03,NW,317,5.0,9.0,30,0.00,CLR,,0.00,WeatherDisplay:10.37,2013-02-03 21:00:00,
2013-02-03 14:05:00,62.2,32.0,30.03,WNW,296,6.0,9.0,32,0.00,CLR,,0.00,WeatherDisplay:10.37,2013-02-03 21:05:00,
2013-02-03 14:10:00,62.2,32.8,30.03,West,281,3.0,7.0,33,0.00,CLR,,0.00,WeatherDisplay:10.37,2013-02-03 21:10:00,
2013-02-03 14:15:00,61.9,33.9,30.03,West,280,7.0,7.0,35,0.00,CLR,,0.00,WeatherDisplay:10.37,2013-02-03 21:15:00,
2013-02-03 14:20:00,61.5,33.6,30.04,WNW,284,3.0,7.0,35,0.00,CLR,,0.00,WeatherDisplay:10.37,2013-02-03 21:20:00,
2013-02-03 14:25:00,60.8,34.3,30.04,WNW,290,12.0,13.0,37,0.00,CLR,,0.00,WeatherDisplay:10.37,2013-02-03 21:25:00,
2013-02-03 14:30:00,60.2,35.8,30.05,WSW,248,8.0,10.0,40,0.00,CLR,,0.00,WeatherDisplay:10.37,2013-02-03 21:30:00,
2013-02-03 14:40:00,58.8,35.8,30.05,West,276,8.0,15.0,42,0.00,CLR,,0.00,WeatherDisplay:10.37,2013-02-03 21:40:00,
2013-02-03 14:45:00,58.3,35.9,30.05,WNW,282,1.0,6.0,43,0.00,CLR,,0.00,WeatherDisplay:10.37,2013-02-03 21:45:00,
2013-02-03 14:50:00,57.9,37.2,30.05,West,272,3.0,5.0,46,0.00,CLR,,0.00,WeatherDisplay:10.37,2013-02-03 21:50:00,
2013-02-03 14:55:00,57.4,37.3,30.05,West,264,2.0,5.0,47,0.00,CLR,,0.00,WeatherDisplay:10.37,2013-02-03 21:55:00,
2013-02-03 15:00:00,57.0,37.0,30.05,West,264,5.0,6.0,47,0.00,CLR,,0.00,WeatherDisplay:10.37,2013-02-03 22:00:00,
2013-02-03 15:05:00,56.5,37.5,30.05,West,268,2.0,8.0,49,0.00,CLR,,0.00,WeatherDisplay:10.37,2013-02-03 22:05:00,
2013-02-03 15:10:00,56.1,37.2,30.05,WNW,286,5.0,10.0,49,0.00,CLR,,0.00,WeatherDisplay:10.37,2013-02-03 22:10:00,
2013-02-03 15:15:00,56.1,37.2,30.05,WNW,283,3.0,10.0,49,0.00,CLR,,0.00,WeatherDisplay:10.37,2013-02-03 22:15:00,
2013-02-03 15:20:00,55.6,36.7,30.04,West,276,0.0,3.0,49,0.00,CLR,,0.00,WeatherDisplay:10.37,2013-02-03 22:20:00,
2013-02-03 15:25:00,55.6,37.2,30.04,West,263,0.0,3.0,50,0.00,CLR,,0.00,WeatherDisplay:10.37,2013-02-03 22:25:00,
2013-02-03 15:30:00,55.3,36.4,30.05,West,277,0.0,3.0,49,0.00,CLR,,0.00,WeatherDisplay:10.37,2013-02-03 22:30:00,
2013-02-03 15:35:00,55.2,36.4,30.04,WNW,282,0.0,2.0,49,0.00,CLR,,0.00,WeatherDisplay:10.37,2013-02-03 22:35:00,
2013-02-03 15:40:00,55.2,36.4,30.04,West,280,2.0,5.0,49,0.00,CLR,,0.00,WeatherDisplay:10.37,2013-02-03 22:40:00,
2013-02-03 15:45:00,55.4,36.5,30.04,WSW,254,0.0,5.0,49,0.00,CLR,,0.00,WeatherDisplay:10.37,2013-02-03 22:45:00,
2013-02-03 15:50:00,55.5,36.1,30.04,WSW,248,0.0,0.0,48,0.00,CLR,,0.00,WeatherDisplay:10.37,2013-02-03 22:50:00,
2013-02-03 15:55:00,55.8,36.4,30.04,West,270,0.0,0.0,48,0.00,CLR,,0.00,WeatherDisplay:10.37,2013-02-03 22:55:00,
2013-02-03 16:00:00,55.9,36.5,30.03,West,270,0.0,0.0,48,0.00,CLR,,0.00,WeatherDisplay:10.37,2013-02-03 23:00:00,
2013-02-03 16:05:00,56.1,36.7,30.03,West,270,0.0,0.0,48,0.00,CLR,,0.00,WeatherDisplay:10.37,2013-02-03 23:05:00,
2013-02-03 16:10:00,56.1,36.7,30.03,West,270,0.0,0.0,48,0.00,CLR,,0.00,WeatherDisplay:10.37,2013-02-03 23:10:00,
2013-02-03 16:15:00,56.5,37.0,30.02,West,270,0.0,0.0,48,0.00,CLR,,0.00,WeatherDisplay:10.37,2013-02-03 23:15:00,
2013-02-03 16:25:00,56.7,36.7,30.01,West,270,0.0,0.0,47,0.00,CLR,,0.00,WeatherDisplay:10.37,2013-02-03 23:25:00,
2013-02-03 16:35:00,56.8,36.8,30.02,West,270,0.0,0.0,47,0.00,CLR,,0.00,WeatherDisplay:10.37,2013-02-03 23:35:00,
2013-02-03 16:40:00,57.0,36.4,30.02,West,270,0.0,0.0,46,0.00,CLR,,0.00,WeatherDisplay:10.37,2013-02-03 23:40:00,
2013-02-03 16:45:00,57.0,36.4,30.02,West,270,0.0,0.0,46,0.00,CLR,,0.00,WeatherDisplay:10.37,2013-02-03 23:45:00,
2013-02-03 16:50:00,57.0,36.4,30.02,West,270,0.0,0.0,46,0.00,CLR,,0.00,WeatherDisplay:10.37,2013-02-03 23:50:00,
2013-02-03 16:55:00,57.0,36.4,30.02,West,268,0.0,0.0,46,0.00,CLR,,0.00,WeatherDisplay:10.37,2013-02-03 23:55:00,
2013-02-03 17:00:00,57.4,36.8,30.02,West,265,0.0,0.0,46,0.00,CLR,,0.00,WeatherDisplay:10.37,2013-02-04 00:00:00,
2013-02-03 17:05:00,57.6,36.9,30.02,West,262,0.0,0.0,46,0.00,CLR,,0.00,WeatherDisplay:10.37,2013-02-04 00:05:00,
2013-02-03 17:10:00,57.7,37.1,30.02,WNW,291,3.0,6.0,46,0.00,CLR,,0.00,WeatherDisplay:10.37,2013-02-04 00:10:00,
2013-02-03 17:15:00,58.1,36.9,30.01,West,269,0.0,6.0,45,0.00,CLR,,0.00,WeatherDisplay:10.37,2013-02-04 00:15:00,
2013-02-03 17:20:00,58.3,36.4,30.02,WSW,258,0.0,0.0,44,0.00,CLR,,0.00,WeatherDisplay:10.37,2013-02-04 00:20:00,
2013-02-03 17:25:00,58.6,36.8,30.02,West,275,0.0,0.0,44,0.00,CLR,,0.00,WeatherDisplay:10.37,2013-02-04 00:25:00,
2013-02-03 17:30:00,58.8,36.4,30.01,NNW,346,0.0,0.0,43,0.00,CLR,,0.00,WeatherDisplay:10.37,2013-02-04 00:30:00,
2013-02-03 17:35:00,58.6,36.2,30.02,North,0,0.0,0.0,43,0.00,CLR,,0.00,WeatherDisplay:10.37,2013-02-04 00:35:00,
2013-02-03 17:40:00,58.8,36.4,30.01,North,0,0.0,0.0,43,0.00,CLR,,0.00,WeatherDisplay:10.37,2013-02-04 00:40:00,
2013-02-03 17:45:00,58.5,36.0,30.02,NNE,30,2.0,6.0,43,0.00,CLR,,0.00,WeatherDisplay:10.37,2013-02-04 00:45:00,
2013-02-03 17:50:00,58.1,36.3,30.02,NE,49,0.0,0.0,44,0.00,CLR,,0.00,WeatherDisplay:10.37,2013-02-04 00:50:00,
2013-02-03 17:55:00,57.9,37.2,30.02,ENE,68,0.0,0.0,46,0.00,CLR,,0.00,WeatherDisplay:10.37,2013-02-04 00:55:00,
2013-02-03 18:00:00,57.4,37.8,30.02,ENE,68,0.0,0.0,48,0.00,CLR,,0.00,WeatherDisplay:10.37,2013-02-04 01:00:00,
2013-02-03 18:05:00,57.0,38.0,30.02,ENE,68,0.0,0.0,49,0.00,CLR,,0.00,WeatherDisplay:10.37,2013-02-04 01:05:00,
2013-02-03 18:10:00,56.5,37.5,30.02,ENE,68,0.0,0.0,49,0.00,CLR,,0.00,WeatherDisplay:10.37,2013-02-04 01:10:00,
2013-02-03 18:15:00,56.1,37.7,30.02,ENE,68,0.0,0.0,50,0.00,CLR,,0.00,WeatherDisplay:10.37,2013-02-04 01:15:00,
2013-02-03 18:20:00,55.9,37.6,30.02,ENE,68,0.0,0.0,50,0.00,CLR,,0.00,WeatherDisplay:10.37,2013-02-04 01:20:00,
2013-02-03 18:25:00,55.3,37.0,30.02,ENE,68,0.0,0.0,50,0.00,CLR,,0.00,WeatherDisplay:10.37,2013-02-04 01:25:00,
2013-02-03 18:30:00,55.2,37.4,30.02,ENE,68,0.0,0.0,51,0.00,CLR,,0.00,WeatherDisplay:10.37,2013-02-04 01:30:00,
2013-02-03 18:35:00,54.9,37.1,30.02,ENE,68,0.0,0.0,51,0.00,CLR,,0.00,WeatherDisplay:10.37,2013-02-04 01:35:00,
2013-02-03 18:40:00,54.3,36.6,30.02,East,84,0.0,0.0,51,0.00,CLR,,0.00,WeatherDisplay:10.37,2013-02-04 01:40:00,
2013-02-03 18:45:00,54.1,36.9,30.02,ESE,106,0.0,0.0,52,0.00,CLR,,0.00,WeatherDisplay:10.37,2013-02-04 01:45:00,
2013-02-03 18:50:00,53.8,36.6,30.02,ESE,112,0.0,0.0,52,0.00,CLR,,0.00,WeatherDisplay:10.37,2013-02-04 01:50:00,
2013-02-03 18:55:00,53.4,36.2,30.03,ESE,112,0.0,0.0,52,0.00,CLR,,0.00,WeatherDisplay:10.37,2013-02-04 01:55:00,
2013-02-03 19:00:00,53.2,36.1,30.03,ESE,112,0.0,0.0,52,0.00,CLR,,0.00,WeatherDisplay:10.37,2013-02-04 02:00:00,
2013-02-03 19:05:00,52.9,35.7,30.03,ESE,112,0.0,0.0,52,0.00,CLR,,0.00,WeatherDisplay:10.37,2013-02-04 02:05:00,
2013-02-03 19:10:00,52.7,35.6,30.03,ESE,112,0.0,0.0,52,0.00,CLR,,0.00,WeatherDisplay:10.37,2013-02-04 02:10:00,
2013-02-03 19:15:00,52.5,35.4,30.03,ESE,112,0.0,0.0,52,0.00,CLR,,0.00,WeatherDisplay:10.37,2013-02-04 02:15:00,
2013-02-03 19:20:00,52.3,35.2,30.03,ESE,112,0.0,0.0,52,0.00,CLR,,0.00,WeatherDisplay:10.37,2013-02-04 02:20:00,
2013-02-03 19:25:00,52.3,35.2,30.03,ESE,112,0.0,0.0,52,0.00,CLR,,0.00,WeatherDisplay:10.37,2013-02-04 02:25:00,
2013-02-03 19:30:00,52.2,35.5,30.02,ESE,112,0.0,0.0,53,0.00,CLR,,0.00,WeatherDisplay:10.37,2013-02-04 02:30:00,
2013-02-03 19:35:00,52.0,35.4,30.03,ESE,112,0.0,0.0,53,0.00,CLR,,0.00,WeatherDisplay:10.37,2013-02-04 02:35:00,
2013-02-03 19:40:00,51.8,35.2,30.03,ESE,112,0.0,0.0,53,0.00,CLR,,0.00,WeatherDisplay:10.37,2013-02-04 02:40:00,
2013-02-03 19:45:00,51.6,35.0,30.03,ESE,112,0.0,0.0,53,0.00,CLR,,0.00,WeatherDisplay:10.37,2013-02-04 02:45:00,
2013-02-03 19:50:00,51.4,34.9,30.03,ESE,112,0.0,0.0,53,0.00,CLR,,0.00,WeatherDisplay:10.37,2013-02-04 02:50:00,
2013-02-03 19:55:00,51.4,35.3,30.02,ESE,112,0.0,0.0,54,0.00,CLR,,0.00,WeatherDisplay:10.37,2013-02-04 02:55:00,
2013-02-03 20:00:00,51.1,35.0,30.03,ESE,112,0.0,0.0,54,0.00,CLR,,0.00,WeatherDisplay:10.37,2013-02-04 03:00:00,
2013-02-03 20:05:00,50.7,34.7,30.04,ESE,112,0.0,0.0,54,0.00,CLR,,0.00,WeatherDisplay:10.37,2013-02-04 03:05:00,
2013-02-03 20:10:00,50.7,34.7,30.03,ESE,112,0.0,0.0,54,0.00,CLR,,0.00,WeatherDisplay:10.37,2013-02-04 03:10:00,
2013-02-03 20:15:00,50.5,34.0,30.03,ESE,112,0.0,0.0,53,0.00,CLR,,0.00,WeatherDisplay:10.37,2013-02-04 03:15:00,
2013-02-03 20:20:00,50.5,34.0,30.04,ESE,112,0.0,0.0,53,0.00,CLR,,0.00,WeatherDisplay:10.37,2013-02-04 03:20:00,
2013-02-03 20:25:00,50.4,33.9,30.04,ESE,112,0.0,0.0,53,0.00,CLR,,0.00,WeatherDisplay:10.37,2013-02-04 03:25:00,
2013-02-03 20:30:00,50.5,33.6,30.03,ESE,112,0.0,0.0,52,0.00,CLR,,0.00,WeatherDisplay:10.37,2013-02-04 03:30:00,
2013-02-03 20:35:00,50.5,33.1,30.03,ESE,112,0.0,0.0,51,0.00,CLR,,0.00,WeatherDisplay:10.37,2013-02-04 03:35:00,
2013-02-03 20:40:00,50.5,33.1,30.03,ESE,112,0.0,0.0,51,0.00,CLR,,0.00,WeatherDisplay:10.37,2013-02-04 03:40:00,
2013-02-03 20:45:00,50.5,33.1,30.04,ESE,122,0.0,0.0,51,0.00,CLR,,0.00,WeatherDisplay:10.37,2013-02-04 03:45:00,
2013-02-03 20:55:00,50.7,32.7,30.04,SE,135,0.0,0.0,50,0.00,CLR,,0.00,WeatherDisplay:10.37,2013-02-04 03:55:00,
2013-02-03 21:00:00,50.7,32.7,30.03,SSE,162,0.0,0.0,50,0.00,CLR,,0.00,WeatherDisplay:10.37,2013-02-04 04:00:00,
2013-02-03 21:05:00,50.7,32.7,30.04,SSW,203,0.0,0.0,50,0.00,CLR,,0.00,WeatherDisplay:10.37,2013-02-04 04:05:00,
2013-02-03 21:10:00,51.1,33.1,30.04,SW,224,0.0,0.0,50,0.00,CLR,,0.00,WeatherDisplay:10.37,2013-02-04 04:10:00,
2013-02-03 21:15:00,51.6,33.1,30.05,SW,225,0.0,0.0,49,0.00,CLR,,0.00,WeatherDisplay:10.37,2013-02-04 04:15:00,
2013-02-03 21:20:00,51.6,33.1,30.05,SSW,208,0.0,0.0,49,0.00,CLR,,0.00,WeatherDisplay:10.37,2013-02-04 04:20:00,
2013-02-03 21:25:00,51.8,33.2,30.04,SSW,207,0.0,0.0,49,0.00,CLR,,0.00,WeatherDisplay:10.37,2013-02-04 04:25:00,
2013-02-03 21:30:00,52.0,33.4,30.04,SSW,205,0.0,0.0,49,0.00,CLR,,0.00,WeatherDisplay:10.37,2013-02-04 04:30:00,
2013-02-03 21:35:00,52.2,33.6,30.04,SW,214,0.0,0.0,49,0.00,CLR,,0.00,WeatherDisplay:10.37,2013-02-04 04:35:00,
2013-02-03 21:45:00,52.3,33.7,30.04,SW,225,0.0,0.0,49,0.00,CLR,,0.00,WeatherDisplay:10.37,2013-02-04 04:45:00,
2013-02-03 21:50:00,52.3,33.7,30.04,SW,225,0.0,0.0,49,0.00,CLR,,0.00,WeatherDisplay:10.37,2013-02-04 04:50:00,
2013-02-03 21:55:00,52.3,33.7,30.04,WSW,238,0.0,0.0,49,0.00,CLR,,0.00,WeatherDisplay:10.37,2013-02-04 04:55:00,
2013-02-03 22:05:00,52.3,33.7,30.05,WSW,248,0.0,0.0,49,0.00,CLR,,0.00,WeatherDisplay:10.37,2013-02-04 05:05:00,
2013-02-03 22:10:00,52.3,33.7,30.05,WSW,248,0.0,0.0,49,0.00,CLR,,0.00,WeatherDisplay:10.37,2013-02-04 05:10:00,
2013-02-03 22:15:00,52.3,33.7,30.04,WSW,248,0.0,0.0,49,0.00,CLR,,0.00,WeatherDisplay:10.37,2013-02-04 05:15:00,
2013-02-03 22:20:00,52.3,33.7,30.04,WSW,248,0.0,0.0,49,0.00,CLR,,0.00,WeatherDisplay:10.37,2013-02-04 05:20:00,
2013-02-03 22:25:00,52.3,33.7,30.04,WSW,248,0.0,0.0,49,0.00,CLR,,0.00,WeatherDisplay:10.37,2013-02-04 05:25:00,
2013-02-03 22:30:00,52.3,33.7,30.04,WSW,248,1.0,2.0,49,0.00,CLR,,0.00,WeatherDisplay:10.37,2013-02-04 05:30:00,
2013-02-03 22:35:00,52.3,33.7,30.04,WSW,251,0.0,0.0,49,0.00,CLR,,0.00,WeatherDisplay:10.37,2013-02-04 05:35:00,
2013-02-03 22:40:00,52.5,33.4,30.04,WSW,250,0.0,0.0,48,0.00,CLR,,0.00,WeatherDisplay:10.37,2013-02-04 05:40:00,
2013-02-03 22:45:00,52.5,33.4,30.04,WSW,248,0.0,0.0,48,0.00,CLR,,0.00,WeatherDisplay:10.37,2013-02-04 05:45:00,
2013-02-03 22:50:00,52.5,33.4,30.03,WSW,248,0.0,0.0,48,0.00,CLR,,0.00,WeatherDisplay:10.37,2013-02-04 05:50:00,
2013-02-03 22:55:00,52.5,33.4,30.04,WSW,256,0.0,0.0,48,0.00,CLR,,0.00,WeatherDisplay:10.37,2013-02-04 05:55:00,
2013-02-03 23:00:00,52.7,33.5,30.04,WSW,256,0.0,0.0,48,0.00,CLR,,0.00,WeatherDisplay:10.37,2013-02-04 06:00:00,
2013-02-03 23:05:00,52.7,33.5,30.04,WSW,248,0.0,0.0,48,0.00,CLR,,0.00,WeatherDisplay:10.37,2013-02-04 06:05:00,
2013-02-03 23:10:00,52.7,33.5,30.04,WSW,243,0.0,0.0,48,0.00,CLR,,0.00,WeatherDisplay:10.37,2013-02-04 06:10:00,
2013-02-03 23:15:00,52.9,33.7,30.04,WSW,239,2.0,6.0,48,0.00,CLR,,0.00,WeatherDisplay:10.37,2013-02-04 06:15:00,
2013-02-03 23:20:00,52.9,33.2,30.04,WSW,246,6.0,6.0,47,0.00,CLR,,0.00,WeatherDisplay:10.37,2013-02-04 06:20:00,
2013-02-03 23:25:00,53.2,33.5,30.04,WSW,247,1.0,6.0,47,0.00,CLR,,0.00,WeatherDisplay:10.37,2013-02-04 06:25:00,
2013-02-03 23:30:00,53.2,33.5,30.03,WSW,241,0.0,4.0,47,0.00,CLR,,0.00,WeatherDisplay:10.37,2013-02-04 06:30:00,
2013-02-03 23:35:00,53.2,33.5,30.03,SW,224,0.0,0.0,47,0.00,CLR,,0.00,WeatherDisplay:10.37,2013-02-04 06:35:00,
2013-02-03 23:40:00,53.4,33.7,30.03,SSW,210,0.0,0.0,47,0.00,CLR,,0.00,WeatherDisplay:10.37,2013-02-04 06:40:00,
2013-02-03 23:45:00,53.4,33.7,30.04,SW,221,0.0,0.0,47,0.00,CLR,,0.00,WeatherDisplay:10.37,2013-02-04 06:45:00,
2013-02-03 23:50:00,53.2,34.0,30.03,SW,225,0.0,0.0,48,0.00,CLR,,0.00,WeatherDisplay:10.37,2013-02-04 06:50:00,
2013-02-03 23:55:00,52.9,33.7,30.04,SW,225,0.0,0.0,48,0.00,CLR,,0.00,WeatherDisplay:10.37,2013-02-04 06:55:00,